ILLY'S PROFILE

Event Staff of RMN

Formerly Cecil Beoulve
Also Izlude
And Ashe
Final Fantasy: Sky Warri...
Prequel to Final Fantasy 1

Rename File

File Size Date Added
rpgmakerwowz.png 319.8 KB 06/11/2020 09:03 AM
snek_executive_avatar.png 33.0 KB 05/29/2020 08:15 AM
89_1315_Upgrades_Duckuin12.jpg 85.7 KB 05/18/2020 11:40 AM
1217_106_Blind_Sooz.jpg 18.8 KB 05/17/2020 10:23 PM
1419_67_Dimensions_Aegix_Drakan.png 691.8 KB 05/15/2020 08:26 PM
16_1512_Revenge_ESBY.jpg 33.2 KB 05/13/2020 06:28 PM
184_132_Chill_Demetrius.png 320.7 KB 05/12/2020 11:57 PM
1312_513_Destination_HorrorBox.jpg 60.7 KB 05/12/2020 11:52 PM
84_36_Archeology_NovemberJoy.png 99.9 KB 05/12/2020 11:47 PM
21_84_Technical_Garage.jpg 87.3 KB 05/12/2020 04:12 AM
416_420_Cyberpunk_NoBody13.jpg 76.9 KB 05/12/2020 04:07 AM
1519_1515_Robots_GreisDomain.jpg 29.4 KB 05/12/2020 04:03 AM
1014_71_Rage_RavenBlueindigo.png 2.0 MB 05/11/2020 07:53 AM
218_127_Future_volke_locke.jpg 47.3 KB 05/11/2020 07:47 AM
1319_136_Contemplation_AtiyaTheSeeker.jpg 53.0 KB 05/11/2020 07:40 AM
814_1418_Eternal_Billiumw.jpeg 149.2 KB 05/11/2020 07:36 AM
1015_1312_Envy_CashmereCat.jpg 284.8 KB 05/10/2020 09:59 PM
418_520_Dragons_TheGiantHand.jpg 44.1 KB 05/10/2020 09:52 PM
1616_14_Fire_manpaint.jpg 539.4 KB 05/10/2020 05:46 AM
310_116_Party_Make_it_MagiK.jpg 60.5 KB 05/10/2020 05:41 AM
715_1410_Construction_Versalia.png 214.7 KB 05/10/2020 05:35 AM
79_167_Containment_LouisCyphre.png 509.9 KB 05/10/2020 05:28 AM
99_18_Cosmic_Archeia_Nessiah.jpg 301.4 KB 05/10/2020 05:22 AM
513_1710_Refusal_Craze.png 297.5 KB 05/10/2020 05:18 AM
146_1413_Flow_Karsuman.jpg 103.8 KB 05/10/2020 05:11 AM
151_159_Trophy_bicfarmer.jpg 54.1 KB 05/09/2020 05:15 PM
916_916_Gratification_Fflo.jpg 7.7 KB 05/09/2020 05:07 PM
189_413_Jungle_Kylaila.jpg 190.7 KB 05/09/2020 04:49 PM
108_714_Unfettered_KatanaHiroshi.jpg 383.0 KB 05/09/2020 04:42 PM
93_1211_Moon_Sidewinder.png 417.2 KB 05/09/2020 04:39 PM
119_118_Advice_tale.jpg 27.9 KB 05/09/2020 04:31 PM
1510_315_Heaven_Marrend.jpg 81.4 KB 05/09/2020 04:18 PM
618_1316_Gravity_Fomar0153.png 177.7 KB 05/09/2020 04:12 PM
34_64_Mafia_pianotm.jpg 91.7 KB 05/09/2020 04:05 AM
317_1713_Hollow_Delsin.jpg 33.7 KB 05/09/2020 03:58 AM
97_152_Borger_lavendersiren.jpg 20.6 KB 05/09/2020 03:50 AM
214_1716_Hideout_thelechking.jpg 142.9 KB 05/09/2020 03:42 AM
518_81_Halcyon_psy_wombats_Pic.jpg 40.0 KB 05/09/2020 03:34 AM
174_414_Survive_Mirak_Pic.jpg 187.7 KB 05/09/2020 03:25 AM
167_1318_Solitude_El_WaKa.jpg 55.1 KB 05/09/2020 03:16 AM
179_713_Throwback_Liberty_Pic.png 158.1 KB 05/09/2020 03:07 AM
1711_76_Alone_Frogge_Pic.jpg 74.8 KB 05/09/2020 02:55 AM
54_1620_Ideals_JustAShyDoge_Pic.jpg 78.8 KB 05/09/2020 02:44 AM
182_118_Morality_Ozzy_Pic.jpg 1.5 MB 05/09/2020 02:34 AM
318_1019_Infectious_coelocanth_Pic.jpg 17.5 KB 05/09/2020 02:22 AM
Face_Roster_2.png 667.6 KB 04/02/2020 09:17 AM
snek_dance.gif 9.8 MB 03/09/2020 03:59 AM
Pixel_Snek_Frame_Progress_9.png 36.9 KB 03/02/2020 10:45 PM
Pixel_Snek_Frame.png 13.1 KB 02/18/2020 11:26 PM
snek_media.jpg 111.5 KB 01/30/2020 06:45 AM
Pages: first 123 next last